Weather History for Lincoln, NE

Change the Weather History Date:

Thursday, September 6, 2012

  Actual Average Record
Temperature  
Mean Temperature 70 °F 70 °F  
Max Temperature 94 °F 83 °F 105 °F (1939)
Min Temperature 46 °F 58 °F 41 °F (1950)
Degree Days  
Heating Degree Days 0 1  
Month to date heating degree days 0 6  
Since 1 July heating degree days 7 12  
Cooling Degree Days 5 6  
Month to date cooling degree days 72 41  
Year to date cooling degree days 1464 1076  
Growing Degree Days 20 (Base 50)    
Moisture  
Dew Point 50 °F    
Average Humidity 55    
Maximum Humidity 86    
Minimum Humidity 24    
Precipitation  
Precipitation 0.00 in 0.11 in 1.91 in (1917)
Month to date precipitation 0.01 0.69  
Year to date precipitation 13.85 22.27  
Snow  
Snow 0.00 in 0.00 in - ()
Month to date snowfall 0.0 0.0  
Since 1 July snowfall 0.0 0.0  
Snow Depth 0.00 in    
Sea Level Pressure  
Sea Level Pressure 29.89 in    
Wind  
Wind Speed 9 mph (SSE)    
Max Wind Speed 25 mph    
Max Gust Speed 29 mph    
Visibility 10 miles    
Events      
T = Trace of Precipitation, MM = Missing Value Source: NWS Daily Summary

Daily Weather History Graph

Daily Weather History Graph

Search for Another Location

Airport:

Trip Planner

Search our weather history database for the weather conditions in past years. The results will help you decide how hot, cold, wet, or windy it might be!

Date:

Astronomy

Sep. 06, 2012 Rise Set
Actual Time 6:59 AM CDT 7:50 PM CDT
Civil Twilight 6:31 AM CDT 8:18 PM CDT
Nautical Twilight 5:58 AM CDT 8:51 PM CDT
Astronomical Twilight 5:24 AM CDT 9:25 PM CDT
Moon 10:59 PM CDT (9/6) 1:02 PM CDT (9/6)
Length of Visible Light 13h 46m
Length of Day
12h 51m
Waning Gibbous, 67% of the Moon is Illuminated
Sep 6
Waning Gibbous
Sep 8
Last Quarter
Sep 15
New
Sep 22
First Quarter
Sep 29
Full

Hourly Weather History & Observations

Time (CDT) Temp. Heat Index Dew Point Humidity Pressure Visibility Wind Dir Wind Speed Gust Speed Precip Events Conditions
12:54 AM 55.0 °F - 46.0 °F 72% 29.97 in 10.0 mi Calm Calm - N/A   Clear
1:54 AM 53.1 °F - 46.0 °F 77% 29.98 in 10.0 mi North 4.6 mph - N/A   Clear
2:54 AM 50.0 °F - 44.1 °F 80% 29.98 in 10.0 mi North 4.6 mph - N/A   Clear
3:54 AM 48.9 °F - 44.1 °F 83% 29.99 in 10.0 mi North 4.6 mph - N/A   Clear
4:54 AM 50.0 °F - 45.0 °F 83% 29.99 in 10.0 mi Calm Calm - N/A   Clear
5:54 AM 50.0 °F - 44.1 °F 80% 29.99 in 10.0 mi South 3.5 mph - N/A   Clear
6:54 AM 46.9 °F - 43.0 °F 86% 30.00 in 10.0 mi North 4.6 mph - N/A   Clear
7:54 AM 51.1 °F - 46.0 °F 83% 30.02 in 10.0 mi Calm Calm - N/A   Clear
8:54 AM 60.1 °F - 46.9 °F 62% 30.01 in 10.0 mi Calm Calm - N/A   Clear
9:54 AM 70.0 °F - 46.9 °F 44% 30.00 in 10.0 mi SSE 6.9 mph - N/A   Clear
10:54 AM 79.0 °F - 44.1 °F 29% 29.97 in 10.0 mi SSE 11.5 mph 18.4 mph N/A   Clear
11:54 AM 82.0 °F - 46.0 °F 28% 29.95 in 10.0 mi SE 11.5 mph 19.6 mph N/A   Clear
12:54 PM 86.0 °F - 46.9 °F 26% 29.90 in 10.0 mi SE 12.7 mph - N/A   Clear
1:54 PM 90.0 °F - 48.0 °F 24% 29.87 in 10.0 mi SE 17.3 mph 23.0 mph N/A   Clear
2:54 PM 91.0 °F - 51.1 °F 25% 29.84 in 10.0 mi South 13.8 mph 23.0 mph N/A   Clear
3:54 PM 93.0 °F 90.6 °F 53.1 °F 26% 29.80 in 10.0 mi South 17.3 mph 25.3 mph N/A   Clear
4:54 PM 93.0 °F 91.1 °F 55.0 °F 28% 29.78 in 10.0 mi South 17.3 mph 24.2 mph N/A   Clear
5:54 PM 91.9 °F 90.6 °F 57.0 °F 31% 29.76 in 10.0 mi South 19.6 mph 25.3 mph N/A   Clear
6:54 PM 89.1 °F 88.2 °F 59.0 °F 36% 29.75 in 10.0 mi South 15.0 mph 24.2 mph N/A   Clear
7:54 PM 84.0 °F 84.0 °F 60.1 °F 44% 29.76 in 10.0 mi South 11.5 mph - N/A   Clear
8:54 PM 78.1 °F - 61.0 °F 56% 29.76 in 10.0 mi South 8.1 mph - N/A   Clear
9:54 PM 79.0 °F - 61.0 °F 54% 29.75 in 10.0 mi South 9.2 mph - N/A   Clear
10:54 PM 75.9 °F - 62.1 °F 62% 29.75 in 10.0 mi South 6.9 mph - N/A   Clear
11:54 PM 73.0 °F - 61.0 °F 66% 29.77 in 10.0 mi Calm Calm - N/A   Clear